DELTA 1 DEB, 7185

Orbit data source: Space-Track

DELTA 1 DEB, 7185 is space debris in SSO originally from a launch on Tue, 06 Nov 1973 UTC launched from the Air Force Western Test Range (AFWTR). Debris objects in space refer to the collection of defunct objects orbiting the Earth. Examples of debris include non-operational satellites, rocket bodies, and fragments generated from explosions, collisions, or faulty payload assembly.

Loading next visibility...
Identifier
7185, 1973-086EW
Orbit
SSO
Country
Flag of USUS
Related business
Manufacturer
Unknown
Mission
Spacecraft
Bus & Motor
Unknown
Mass
Unknown
Launch date (UTC)
1973-11-06 (52 years ago)
Launch vehicle
Unknown
Launch site
Air Force Western Test Range (AFWTR)
Object type
Payload
Rocket body
Debris
Shape & HBR
Unknown shape, 0.1 m
Radar Cross Section
Small (<0.1 m²)

Expand to show TLE details & history
Last TLE update: 1 day ago

TLE from 1 day ago
0 DELTA 1 DEB
1 07185U 73086EW  26033.86674576  .00000439  00000-0  42780-2 0  9997
2 07185 101.8160 190.7495 0152140 192.4284 334.8121 12.23564535325499
Epoch: 2026-02-02T20:48Z
TLE epoch observation values (Epoch: 2026-02-02T20:48:06.833Z)
Latitude
13.19275°
Longitude
-71.53778°
Altitude
1,469.655 km
Speed
7.178 km/s
True Right ascension
00h 54m 11s
True Declination
13° 07' 24"
Sunlit
Object was in daylight at epoch
Visualization orbit readout
Latitude
Unknown
Longitude
Unknown
Altitude
Unknown
Speed
Unknown
Apparent Right ascension
Unknown
Apparent Declination
Unknown
Sunlit
N/A
Visualization observer readout
Local Sidereal Time
03:13:34
Azimuth
Unknown
Elevation
Unknown
Doppler factor
Unknown
Orbital elements
Apogee altitude
1,695.632 km
Perigee altitude
1,453.645 km
Semi-major axis
7,952.775 km
Eccentricity
0.01521
Inclination
101.816°
RAAN
190.7495°
Arg. of periapsis
192.4284°
True anomaly
334.05717°
Mean anomaly
334.8121°
Eccentric anomaly
334.43594°
Mean motion
3.06031 °/min
Orbital period
117.64 mins
BSTAR
0.004278
Loading maneuver chart data...
Computing Atmospheric mass density...
Loading historical data...
Loading historical data...
Loading historical data...
Loading historical data...
Loading historical data...
Loading historical data...
Loading historical data...

Documentation

Showing up to 5 results
|